This is the latest recevied weather packets stored in our database for station/object BARLOW-WX. If no packets are shown the sender has not sent any weather packets the latest 10 day(s).
| Time | Temp. | Humidity | Pressure | Rain* | Wind** | Luminosity | Snow |
|---|---|---|---|---|---|---|---|
| 1777073495 | 16.67° C | 85% | 979.6 hPa | 0 mm | - | - | - |
| 1777072581 | 17.22° C | 85% | 979.7 hPa | 0.25 mm | - | - | - |
| 1777071700 | 17.22° C | 85% | 979.7 hPa | 0.25 mm | - | - | - |
| 1777070781 | 17.22° C | 78% | 978.8 hPa | 0 mm | - | - | - |
| 1777069891 | 17.78° C | 74% | 979.7 hPa | 0 mm | - | - | - |
| 1777068983 | 17.78° C | 74% | 979.8 hPa | 0 mm | - | - | - |
| 1777068102 | 18.33° C | 74% | 979.8 hPa | 0 mm | - | - | - |
| 1777067183 | 18.33° C | 67% | 979.3 hPa | 0 mm | - | - | - |
| 1777066294 | 18.89° C | 73% | 979 hPa | 0 mm | - | - | - |
| 1777065380 | 18.89° C | 73% | 979 hPa | 0 mm | - | - | - |
| 1777064503 | 18.89° C | 73% | 979 hPa | 0 mm | - | - | - |
| 1777063583 | 18.89° C | 77% | 978.3 hPa | 0 mm | - | - | - |
| 1777062695 | 19.44° C | 79% | 978.3 hPa | 0 mm | - | - | - |
| 1777061782 | 19.44° C | 79% | 978.3 hPa | 0 mm | - | - | - |
| 1777060902 | 19.44° C | 79% | 978.3 hPa | 0 mm | - | - | - |
| 1777059982 | 19.44° C | 69% | 978.7 hPa | 0 mm | - | - | - |
| 1777059092 | 20° C | 69% | 978.7 hPa | 0 mm | - | - | - |
| 1777058181 | 19.44° C | 69% | 978.7 hPa | 0 mm | - | - | - |
| 1777057303 | 21.67° C | 69% | 978.7 hPa | 0 mm | - | - | - |
| 1777056381 | 22.78° C | 61% | 978.4 hPa | 0 mm | - | - | - |
| 1777055495 | 23.33° C | 61% | 978.2 hPa | 0 mm | - | - | - |
| 1777054581 | 22.78° C | 61% | 978.2 hPa | 0 mm | - | - | - |
| 1777053707 | 23.33° C | 61% | 978.2 hPa | 0 mm | - | - | - |
| 1777052781 | 23.33° C | 63% | 977.6 hPa | 0 mm | - | - | - |
| 1777051890 | 23.89° C | 56% | 978.1 hPa | 0 mm | - | - | - |
* Rain latest hour (hover to see other rain measurements)
** Current wind speed in m/s (hover to see current wind gust speed)